Location: Songkhla
(7.2000°N, 100.6000°E)
Time: 06:09:34
(UTC+07:00)

ISS - Visible Passes

Search period start: 06 May 2021 00:00
Search period end: 16 May 2021 00:00
Orbit: 418 x 421 km, 51.6° (Epoch: 05 May)

Date Brightness Start Highest point End Pass type
(mag) Time Alt. Az. Time Alt. Az. Time Alt. Az.
12 May -3.1 19:52:02 10° SW 19:54:28 45° SW 19:54:28 45° SW visible
13 May -3.2 19:04:53 10° SSW 19:07:59 36° SE 19:11:06 10° ENE visible
14 May -0.6 19:55:05 10° W 19:57:13 16° NW 19:59:21 10° NNW visible
15 May -1.8 19:06:42 10° WSW 19:09:46 34° NW 19:12:51 10° NNE visible
